| time (UTC) | temp F | wind direction | speed MPH | gust MPH | rain 1hr in | rain 24hr in | rain mn in | humidity % | barometer mb |
| 20260503001955 | 64 | 238 | 1.0 | 2.0 | 0.00 | 0.00 | 0.00 | 35 | 1008.6 |
| 20260503001452 | 64 | 288 | 3.0 | 3.0 | 0.00 | 0.00 | 0.00 | 34 | 1008.6 |
| 20260503000950 | 64 | 275 | 3.0 | 3.0 | 0.00 | 0.00 | 0.00 | 34 | 1008.6 |
| 20260503000447 | 64 | 269 | 5.0 | 7.0 | 0.00 | 0.00 | 0.00 | 33 | 1008.4 |
| 20260502235944 | 64 | 301 | 5.0 | 6.0 | 0.00 | 0.00 | 0.00 | 33 | 1008.4 |
| 20260502235441 | 64 | 258 | 3.0 | 5.0 | 0.00 | 0.00 | 0.00 | 34 | 1008.5 |
| 20260502234938 | 64 | 271 | 3.0 | 5.0 | 0.00 | 0.00 | 0.00 | 34 | 1008.6 |
| 20260502234435 | 64 | 281 | 3.0 | 3.0 | 0.00 | 0.00 | 0.00 | 34 | 1008.7 |
| 20260502233932 | 65 | 257 | 2.0 | 2.0 | 0.00 | 0.00 | 0.00 | 34 | 1008.6 |
| 20260502233427 | 65 | 276 | 6.0 | 7.0 | 0.00 | 0.00 | 0.00 | 33 | 1008.6 |
| 20260502232925 | 64 | 271 | 5.0 | 6.0 | 0.00 | 0.00 | 0.00 | 34 | 1008.7 |
| 20260502232421 | 64 | 226 | 3.0 | 5.0 | 0.00 | 0.00 | 0.00 | 35 | 1008.8 |
| 20260502231918 | 64 | 280 | 3.0 | 5.0 | 0.00 | 0.00 | 0.00 | 35 | 1008.9 |
| 20260502231415 | 64 | 216 | 1.0 | 1.0 | 0.00 | 0.00 | 0.00 | 38 | 1009.0 |
| 20260502230913 | 64 | 251 | 2.0 | 2.0 | 0.00 | 0.00 | 0.00 | 38 | 1008.9 |
| 20260502230411 | 64 | 279 | 4.0 | 5.0 | 0.00 | 0.00 | 0.00 | 37 | 1008.9 |
| 20260502225909 | 65 | 244 | 4.0 | 5.0 | 0.00 | 0.00 | 0.00 | 36 | 1009.0 |
| 20260502225404 | 65 | 231 | 2.0 | 2.0 | 0.00 | 0.00 | 0.00 | 36 | 1008.9 |
| 20260502224902 | 65 | 235 | 1.0 | 2.0 | 0.00 | 0.00 | 0.00 | 35 | 1009.0 |
| 20260502224357 | 65 | 221 | 1.0 | 1.0 | 0.00 | 0.00 | 0.00 | 36 | 1008.9 |
| 20260502223855 | 65 | 222 | 2.0 | 2.0 | 0.00 | 0.00 | 0.00 | 35 | 1009.0 |
| 20260502223353 | 65 | 221 | 2.0 | 2.0 | 0.00 | 0.00 | 0.00 | 34 | 1009.0 |
| 20260502222850 | 65 | 223 | 3.0 | 3.0 | 0.00 | 0.00 | 0.00 | 35 | 1009.0 |
| 20260502222348 | 65 | 205 | 3.0 | 3.0 | 0.00 | 0.00 | 0.00 | 35 | 1009.2 |
| 20260502221843 | 65 | 238 | 2.0 | 3.0 | 0.00 | 0.00 | 0.00 | 35 | 1008.9 |
| 20260502221340 | 65 | 226 | 0.0 | 1.0 | 0.00 | 0.00 | 0.00 | 34 | 1009.2 |
| 20260502220837 | 65 | 246 | 1.0 | 2.0 | 0.00 | 0.00 | 0.00 | 34 | 1009.2 |
| 20260502220333 | 65 | 245 | 3.0 | 3.0 | 0.00 | 0.00 | 0.00 | 34 | 1009.2 |
| 20260502215830 | 65 | 249 | 4.0 | 6.0 | 0.00 | 0.00 | 0.00 | 34 | 1009.3 |
| 20260502215327 | 65 | 271 | 6.0 | 7.0 | 0.00 | 0.00 | 0.00 | 34 | 1009.5 |
| 20260502214824 | 65 | 268 | 4.0 | 5.0 | 0.00 | 0.00 | 0.00 | 35 | 1009.3 |
| 20260502214320 | 64 | 254 | 3.0 | 3.0 | 0.00 | 0.00 | 0.00 | 35 | 1009.5 |
| 20260502213818 | 64 | 225 | 3.0 | 5.0 | 0.00 | 0.00 | 0.00 | 33 | 1009.6 |
| 20260502213315 | 65 | 263 | 3.0 | 5.0 | 0.00 | 0.00 | 0.00 | 33 | 1009.8 |
| 20260502212814 | 65 | 249 | 3.0 | 3.0 | 0.00 | 0.00 | 0.00 | 33 | 1009.9 |
| 20260502212312 | 65 | 254 | 4.0 | 5.0 | 0.00 | 0.00 | 0.00 | 34 | 1010.0 |
| 20260502211809 | 64 | 276 | 4.0 | 6.0 | 0.00 | 0.00 | 0.00 | 33 | 1009.9 |
| 20260502211304 | 65 | 264 | 4.0 | 5.0 | 0.00 | 0.00 | 0.00 | 35 | 1010.2 |
| 20260502210802 | 65 | 285 | 4.0 | 5.0 | 0.00 | 0.00 | 0.00 | 34 | 1010.3 |
| 20260502210259 | 65 | 264 | 3.0 | 3.0 | 0.00 | 0.00 | 0.00 | 33 | 1010.4 |
| 20260502205756 | 65 | 246 | 7.0 | 8.0 | 0.00 | 0.00 | 0.00 | 33 | 1010.5 |
| 20260502205252 | 65 | 261 | 5.0 | 6.0 | 0.00 | 0.00 | 0.00 | 32 | 1010.4 |
| 20260502204749 | 65 | 273 | 7.0 | 8.0 | 0.00 | 0.00 | 0.00 | 33 | 1010.6 |
| 20260502204246 | 65 | 260 | 6.0 | 7.0 | 0.00 | 0.00 | 0.00 | 33 | 1010.6 |
| 20260502203744 | 65 | 242 | 5.0 | 6.0 | 0.00 | 0.00 | 0.00 | 33 | 1010.7 |
| 20260502203242 | 64 | 300 | 3.0 | 3.0 | 0.00 | 0.00 | 0.00 | 34 | 1010.8 |
| 20260502202736 | 64 | 271 | 5.0 | 6.0 | 0.00 | 0.00 | 0.00 | 33 | 1011.0 |
| 20260502202234 | 64 | 268 | 7.0 | 8.0 | 0.00 | 0.00 | 0.00 | 34 | 1011.0 |
| 20260502201731 | 63 | 275 | 4.0 | 5.0 | 0.00 | 0.00 | 0.00 | 35 | 1011.1 |
| 20260502201228 | 64 | 270 | 5.0 | 6.0 | 0.00 | 0.00 | 0.00 | 33 | 1011.4 |
| 20260502200724 | 64 | 246 | 5.0 | 6.0 | 0.00 | 0.00 | 0.00 | 34 | 1011.4 |
| 20260502200220 | 64 | 262 | 7.0 | 8.0 | 0.00 | 0.00 | 0.00 | 34 | 1011.6 |
| 20260502195719 | 64 | 270 | 5.0 | 7.0 | 0.00 | 0.00 | 0.00 | 34 | 1011.7 |
| 20260502195215 | 64 | 256 | 2.0 | 2.0 | 0.00 | 0.00 | 0.00 | 36 | 1011.7 |
| 20260502194711 | 63 | 306 | 7.0 | 8.0 | 0.00 | 0.00 | 0.00 | 33 | 1011.8 |
| 20260502194209 | 64 | 274 | 5.0 | 6.0 | 0.00 | 0.00 | 0.00 | 35 | 1012.0 |
| 20260502193704 | 63 | 265 | 5.0 | 7.0 | 0.00 | 0.00 | 0.00 | 35 | 1012.1 |
| 20260502193202 | 62 | 277 | 5.0 | 6.0 | 0.00 | 0.00 | 0.00 | 35 | 1012.1 |
| 20260502192657 | 62 | 281 | 5.0 | 7.0 | 0.00 | 0.00 | 0.00 | 35 | 1011.9 |
| 20260502192155 | 62 | 260 | 7.0 | 7.0 | 0.00 | 0.00 | 0.00 | 35 | 1012.3 |
| 20260502191651 | 62 | 274 | 4.0 | 7.0 | 0.00 | 0.00 | 0.00 | 36 | 1012.4 |
| 20260502191149 | 61 | 247 | 3.0 | 5.0 | 0.00 | 0.00 | 0.00 | 36 | 1012.5 |
| 20260502190646 | 60 | 250 | 3.0 | 6.0 | 0.00 | 0.00 | 0.00 | 37 | 1012.6 |
| 20260502190144 | 62 | 237 | 4.0 | 5.0 | 0.00 | 0.00 | 0.00 | 36 | 1012.7 |
| 20260502185638 | 62 | 222 | 1.0 | 1.0 | 0.00 | 0.00 | 0.00 | 34 | 1012.9 |
| 20260502185135 | 61 | 231 | 3.0 | 3.0 | 0.00 | 0.00 | 0.00 | 36 | 1013.0 |
| 20260502184631 | 61 | 248 | 3.0 | 3.0 | 0.00 | 0.00 | 0.00 | 35 | 1013.1 |
| 20260502184127 | 60 | 216 | 2.0 | 2.0 | 0.00 | 0.00 | 0.00 | 36 | 1013.4 |
| 20260502183624 | 61 | 255 | 4.0 | 5.0 | 0.00 | 0.00 | 0.00 | 36 | 1013.4 |
| 20260502183120 | 61 | 209 | 5.0 | 6.0 | 0.00 | 0.00 | 0.00 | 37 | 1013.6 |
| 20260502182615 | 61 | 235 | 5.0 | 6.0 | 0.00 | 0.00 | 0.00 | 36 | 1013.5 |
| 20260502182111 | 60 | 200 | 2.0 | 2.0 | 0.00 | 0.00 | 0.00 | 35 | 1013.9 |
| 20260502181609 | 59 | 243 | 2.0 | 2.0 | 0.00 | 0.00 | 0.00 | 36 | 1013.8 |
| 20260502181108 | 59 | 249 | 5.0 | 6.0 | 0.00 | 0.00 | 0.00 | 35 | 1013.9 |
| 20260502180604 | 59 | 222 | 5.0 | 6.0 | 0.00 | 0.00 | 0.00 | 35 | 1013.8 |
| 20260502164007 | 56 | 177 | 4.0 | 5.0 | 0.00 | 0.00 | 0.00 | 36 | 1015.4 |
| 20260502163503 | 56 | 262 | 3.0 | 3.0 | 0.00 | 0.00 | 0.00 | 37 | 1015.6 |
| 20260502163000 | 56 | 230 | 1.0 | 1.0 | 0.00 | 0.00 | 0.00 | 38 | 1015.5 |
| 20260502162457 | 56 | 265 | 5.0 | 5.0 | 0.00 | 0.00 | 0.00 | 37 | 1015.7 |
| 20260502161954 | 55 | 223 | 1.0 | 1.0 | 0.00 | 0.00 | 0.00 | 38 | 1015.7 |
| 20260502161450 | 55 | 260 | 2.0 | 2.0 | 0.00 | 0.00 | 0.00 | 38 | 1015.7 |
| 20260502160949 | 55 | 244 | 4.0 | 5.0 | 0.00 | 0.00 | 0.00 | 40 | 1015.8 |
| 20260502160446 | 54 | 282 | 3.0 | 3.0 | 0.00 | 0.00 | 0.00 | 39 | 1015.8 |
| 20260502151935 | 53 | 278 | 4.0 | 5.0 | 0.00 | 0.00 | 0.00 | 43 | 1016.4 |
| 20260502151432 | 53 | 249 | 5.0 | 8.0 | 0.00 | 0.00 | 0.00 | 42 | 1016.4 |
| 20260502150929 | 53 | 266 | 6.0 | 7.0 | 0.00 | 0.00 | 0.00 | 43 | 1016.5 |
| 20260502150426 | 52 | 273 | 5.0 | 6.0 | 0.00 | 0.00 | 0.00 | 43 | 1016.6 |
| 20260502130312 | 43 | 273 | 2.0 | 2.0 | 0.00 | 0.00 | 0.00 | 66 | 1017.5 |
| 20260502123757 | 40 | 252 | 1.0 | 1.0 | 0.00 | 0.00 | 0.00 | 69 | 1017.4 |
| 20260502123254 | 39 | 260 | 1.0 | 2.0 | 0.00 | 0.00 | 0.00 | 71 | 1017.3 |
| 20260502122751 | 39 | 275 | 1.0 | 2.0 | 0.00 | 0.00 | 0.00 | 73 | 1017.3 |
| 20260502122247 | 38 | 253 | 1.0 | 2.0 | 0.00 | 0.00 | 0.00 | 75 | 1017.4 |
| 20260502121745 | 37 | 229 | 1.0 | 1.0 | 0.00 | 0.00 | 0.00 | 76 | 1017.3 |
| 20260502121243 | 35 | 223 | 1.0 | 1.0 | 0.00 | 0.00 | 0.00 | 79 | 1017.4 |
| 20260502120739 | 35 | 211 | 0.0 | 0.0 | 0.00 | 0.00 | 0.00 | 79 | 1017.2 |
| 20260502120236 | 35 | 211 | 0.0 | 0.0 | 0.00 | 0.00 | 0.00 | 78 | 1017.2 |
| 20260502115734 | 35 | 211 | 0.0 | 0.0 | 0.00 | 0.00 | 0.00 | 78 | 1017.2 |
| 20260502115231 | 35 | 211 | 0.0 | 0.0 | 0.00 | 0.00 | 0.00 | 78 | 1017.3 |
| 20260502114726 | 35 | 211 | 0.0 | 0.0 | 0.00 | 0.00 | 0.00 | 78 | 1017.3 |
| 20260502114224 | 35 | 211 | 0.0 | 0.0 | 0.00 | 0.00 | 0.00 | 78 | 1017.1 |
| 20260502113721 | 35 | 211 | 0.0 | 0.0 | 0.00 | 0.00 | 0.00 | 78 | 1017.2 |
| 20260502113219 | 35 | 213 | 0.0 | 0.0 | 0.00 | 0.00 | 0.00 | 76 | 1017.4 |
| 20260502112716 | 35 | 213 | 0.0 | 0.0 | 0.00 | 0.00 | 0.00 | 76 | 1017.4 |
| 20260502112214 | 35 | 220 | 0.0 | 1.0 | 0.00 | 0.00 | 0.00 | 78 | 1017.3 |
| 20260502111711 | 35 | 207 | 0.0 | 0.0 | 0.00 | 0.00 | 0.00 | 77 | 1017.2 |
| 20260502111209 | 35 | 201 | 0.0 | 0.0 | 0.00 | 0.00 | 0.00 | 77 | 1017.2 |
| 20260502110706 | 37 | 198 | 0.0 | 0.0 | 0.00 | 0.00 | 0.00 | 74 | 1017.2 |
| 20260502110203 | 37 | 230 | 1.0 | 1.0 | 0.00 | 0.00 | 0.00 | 72 | 1017.1 |
| 20260502105701 | 37 | 227 | 1.0 | 1.0 | 0.00 | 0.00 | 0.00 | 72 | 1017.4 |
| 20260502105157 | 37 | 228 | 1.0 | 1.0 | 0.00 | 0.00 | 0.00 | 72 | 1017.2 |
| 20260502104655 | 37 | 254 | 1.0 | 1.0 | 0.00 | 0.00 | 0.00 | 72 | 1017.2 |
| 20260502104152 | 37 | 226 | 1.0 | 1.0 | 0.00 | 0.00 | 0.00 | 71 | 1017.1 |
| 20260502103649 | 37 | 227 | 1.0 | 1.0 | 0.00 | 0.00 | 0.00 | 71 | 1017.2 |
| 20260502103148 | 37 | 248 | 1.0 | 2.0 | 0.00 | 0.00 | 0.00 | 71 | 1017.3 |
| 20260502102644 | 37 | 230 | 2.0 | 2.0 | 0.00 | 0.00 | 0.00 | 71 | 1017.0 |
| 20260502102141 | 37 | 237 | 1.0 | 2.0 | 0.00 | 0.00 | 0.00 | 71 | 1017.1 |
| 20260502101639 | 37 | 233 | 1.0 | 1.0 | 0.00 | 0.00 | 0.00 | 71 | 1017.0 |
| 20260502101137 | 37 | 231 | 1.0 | 1.0 | 0.00 | 0.00 | 0.00 | 72 | 1017.0 |
| 20260502100635 | 37 | 222 | 0.0 | 1.0 | 0.00 | 0.00 | 0.00 | 72 | 1016.8 |
| 20260502100133 | 37 | 223 | 0.0 | 0.0 | 0.00 | 0.00 | 0.00 | 71 | 1016.8 |
| 20260502091107 | 36 | 223 | 0.0 | 1.0 | 0.00 | 0.00 | 0.00 | 73 | 1016.8 |
| 20260502090604 | 36 | 212 | 1.0 | 1.0 | 0.00 | 0.00 | 0.00 | 73 | 1016.8 |
| 20260502071458 | 40 | 218 | 0.0 | 0.0 | 0.00 | 0.00 | 0.00 | 61 | 1017.2 |
| 20260502070956 | 40 | 217 | 1.0 | 1.0 | 0.00 | 0.00 | 0.00 | 60 | 1017.0 |
| 20260502070454 | 41 | 219 | 0.0 | 1.0 | 0.00 | 0.00 | 0.00 | 60 | 1017.3 |
| 20260502065952 | 41 | 243 | 1.0 | 2.0 | 0.00 | 0.00 | 0.00 | 60 | 1017.1 |
| 20260502065451 | 41 | 228 | 1.0 | 1.0 | 0.00 | 0.00 | 0.00 | 59 | 1017.2 |
| 20260502064948 | 41 | 219 | 0.0 | 0.0 | 0.00 | 0.00 | 0.00 | 59 | 1017.1 |
| 20260502064446 | 41 | 232 | 1.0 | 1.0 | 0.00 | 0.00 | 0.00 | 58 | 1017.3 |
| 20260502063943 | 41 | 233 | 1.0 | 1.0 | 0.00 | 0.00 | 0.00 | 58 | 1017.2 |
| 20260502063441 | 41 | 217 | 0.0 | 1.0 | 0.00 | 0.00 | 0.00 | 57 | 1017.5 |
| 20260502062938 | 41 | 251 | 1.0 | 2.0 | 0.00 | 0.00 | 0.00 | 57 | 1017.3 |
| 20260502062435 | 42 | 227 | 1.0 | 1.0 | 0.00 | 0.00 | 0.00 | 57 | 1017.3 |
| 20260502061934 | 42 | 229 | 1.0 | 1.0 | 0.00 | 0.00 | 0.00 | 56 | 1017.3 |
| 20260502061431 | 42 | 222 | 1.0 | 1.0 | 0.00 | 0.00 | 0.00 | 56 | 1017.3 |
| 20260502060927 | 42 | 236 | 1.0 | 1.0 | 0.00 | 0.00 | 0.00 | 57 | 1017.4 |
| 20260502060422 | 42 | 251 | 2.0 | 2.0 | 0.00 | 0.00 | 0.00 | 56 | 1017.3 |
| 20260502055920 | 42 | 251 | 1.0 | 2.0 | 0.00 | 0.00 | 0.00 | 57 | 1017.4 |
| 20260502055418 | 42 | 234 | 0.0 | 1.0 | 0.00 | 0.00 | 0.00 | 57 | 1017.2 |
| 20260502054917 | 42 | 221 | 0.0 | 1.0 | 0.00 | 0.00 | 0.00 | 56 | 1017.3 |
| 20260502054414 | 42 | 222 | 1.0 | 1.0 | 0.00 | 0.00 | 0.00 | 56 | 1017.4 |
| 20260502053912 | 42 | 223 | 0.0 | 1.0 | 0.00 | 0.00 | 0.00 | 56 | 1017.3 |
| 20260502053409 | 42 | 257 | 2.0 | 2.0 | 0.00 | 0.00 | 0.00 | 55 | 1017.4 |
| 20260502052906 | 42 | 237 | 1.0 | 1.0 | 0.00 | 0.00 | 0.00 | 55 | 1017.5 |
| 20260502052405 | 42 | 221 | 1.0 | 1.0 | 0.00 | 0.00 | 0.00 | 55 | 1017.3 |
| 20260502051902 | 42 | 238 | 1.0 | 1.0 | 0.00 | 0.00 | 0.00 | 55 | 1017.4 |
| 20260502051400 | 42 | 228 | 1.0 | 1.0 | 0.00 | 0.00 | 0.00 | 55 | 1017.4 |
| 20260502050857 | 42 | 231 | 1.0 | 1.0 | 0.00 | 0.00 | 0.00 | 55 | 1017.4 |
| 20260502050353 | 42 | 231 | 1.0 | 1.0 | 0.00 | 0.00 | 0.00 | 54 | 1017.4 |
| 20260502045850 | 43 | 228 | 1.0 | 1.0 | 0.00 | 0.00 | 0.00 | 54 | 1017.4 |
| 20260502045347 | 43 | 224 | 1.0 | 1.0 | 0.00 | 0.00 | 0.00 | 54 | 1017.4 |
| 20260502044844 | 43 | 235 | 1.0 | 1.0 | 0.00 | 0.00 | 0.00 | 53 | 1017.4 |
| 20260502044340 | 43 | 237 | 1.0 | 1.0 | 0.00 | 0.00 | 0.00 | 53 | 1017.3 |
| 20260502043837 | 43 | 224 | 1.0 | 1.0 | 0.00 | 0.00 | 0.00 | 54 | 1017.3 |
| 20260502043335 | 43 | 227 | 1.0 | 1.0 | 0.00 | 0.00 | 0.00 | 54 | 1017.2 |
| 20260502042834 | 43 | 218 | 0.0 | 0.0 | 0.00 | 0.00 | 0.00 | 55 | 1017.3 |
| 20260502042332 | 42 | 227 | 1.0 | 1.0 | 0.00 | 0.00 | 0.00 | 55 | 1017.4 |
| 20260502041829 | 41 | 227 | 1.0 | 1.0 | 0.00 | 0.00 | 0.00 | 58 | 1017.4 |
| 20260502041326 | 40 | 220 | 0.0 | 0.0 | 0.00 | 0.00 | 0.00 | 65 | 1017.4 |
| 20260502040823 | 39 | 215 | 0.0 | 0.0 | 0.00 | 0.00 | 0.00 | 63 | 1017.5 |
| 20260502040320 | 39 | 208 | 0.0 | 0.0 | 0.00 | 0.00 | 0.00 | 68 | 1017.3 |
| 20260502035816 | 39 | 209 | 0.0 | 0.0 | 0.00 | 0.00 | 0.00 | 68 | 1017.3 |
| 20260502035313 | 39 | 207 | 0.0 | 0.0 | 0.00 | 0.00 | 0.00 | 70 | 1017.4 |
| 20260502034811 | 39 | 205 | 0.0 | 0.0 | 0.00 | 0.00 | 0.00 | 74 | 1017.3 |
| 20260502034309 | 38 | 203 | 0.0 | 0.0 | 0.00 | 0.00 | 0.00 | 75 | 1017.4 |
| 20260502033807 | 38 | 208 | 0.0 | 0.0 | 0.00 | 0.00 | 0.00 | 76 | 1017.5 |
| 20260502033304 | 38 | 213 | 0.0 | 0.0 | 0.00 | 0.00 | 0.00 | 75 | 1017.5 |
| 20260502032801 | 39 | 213 | 0.0 | 0.0 | 0.00 | 0.00 | 0.00 | 75 | 1017.5 |
| 20260502032257 | 39 | 209 | 0.0 | 1.0 | 0.00 | 0.00 | 0.00 | 72 | 1017.2 |
| 20260502031755 | 39 | 207 | 0.0 | 1.0 | 0.00 | 0.00 | 0.00 | 73 | 1017.3 |
| 20260502031253 | 39 | 203 | 0.0 | 0.0 | 0.00 | 0.00 | 0.00 | 73 | 1017.4 |
| 20260502030751 | 39 | 213 | 0.0 | 0.0 | 0.00 | 0.00 | 0.00 | 74 | 1017.2 |
| 20260502030248 | 39 | 207 | 0.0 | 0.0 | 0.00 | 0.00 | 0.00 | 74 | 1017.4 |
| 20260502025746 | 39 | 208 | 0.0 | 0.0 | 0.00 | 0.00 | 0.00 | 75 | 1017.3 |
| 20260502025244 | 39 | 209 | 0.0 | 0.0 | 0.00 | 0.00 | 0.00 | 73 | 1017.6 |
| 20260502024741 | 40 | 212 | 0.0 | 0.0 | 0.00 | 0.00 | 0.00 | 73 | 1017.3 |
| 20260502024239 | 40 | 213 | 0.0 | 0.0 | 0.00 | 0.00 | 0.00 | 72 | 1017.4 |
| 20260502023737 | 40 | 213 | 0.0 | 0.0 | 0.00 | 0.00 | 0.00 | 70 | 1017.4 |
| 20260502023234 | 40 | 211 | 0.0 | 0.0 | 0.00 | 0.00 | 0.00 | 72 | 1017.5 |
| 20260502022732 | 40 | 208 | 0.0 | 0.0 | 0.00 | 0.00 | 0.00 | 70 | 1017.6 |
| 20260502022227 | 41 | 213 | 0.0 | 0.0 | 0.00 | 0.00 | 0.00 | 69 | 1017.4 |
| 20260502021725 | 41 | 211 | 0.0 | 0.0 | 0.00 | 0.00 | 0.00 | 69 | 1017.3 |
| 20260502021222 | 41 | 207 | 0.0 | 0.0 | 0.00 | 0.00 | 0.00 | 69 | 1017.3 |
| 20260502020719 | 42 | 211 | 0.0 | 0.0 | 0.00 | 0.00 | 0.00 | 68 | 1017.3 |
| 20260502020216 | 42 | 211 | 0.0 | 0.0 | 0.00 | 0.00 | 0.00 | 67 | 1017.0 |
| 20260502015714 | 42 | 211 | 0.0 | 0.0 | 0.00 | 0.00 | 0.00 | 66 | 1017.1 |
| 20260502015210 | 43 | 212 | 0.0 | 0.0 | 0.00 | 0.00 | 0.00 | 64 | 1017.1 |
| 20260502014708 | 43 | 213 | 0.0 | 0.0 | 0.00 | 0.00 | 0.00 | 63 | 1016.8 |
| 20260502014205 | 44 | 213 | 0.0 | 0.0 | 0.00 | 0.00 | 0.00 | 63 | 1016.8 |
| 20260502013701 | 44 | 213 | 0.0 | 0.0 | 0.00 | 0.00 | 0.00 | 62 | 1016.7 |
| 20260502013155 | 45 | 209 | 0.0 | 0.0 | 0.00 | 0.00 | 0.00 | 54 | 1016.7 |
| 20260502012654 | 45 | 214 | 0.0 | 0.0 | 0.00 | 0.00 | 0.00 | 56 | 1016.6 |
| 20260502012152 | 46 | 211 | 0.0 | 0.0 | 0.00 | 0.00 | 0.00 | 56 | 1016.5 |
| 20260502011648 | 46 | 211 | 0.0 | 0.0 | 0.00 | 0.00 | 0.00 | 55 | 1016.6 |
| 20260502011144 | 47 | 210 | 0.0 | 0.0 | 0.00 | 0.00 | 0.00 | 50 | 1016.6 |
| 20260502010642 | 48 | 207 | 0.0 | 0.0 | 0.00 | 0.00 | 0.00 | 43 | 1016.5 |
| 20260502010138 | 48 | 210 | 0.0 | 0.0 | 0.00 | 0.00 | 0.00 | 46 | 1016.5 |
| 20260502005635 | 49 | 213 | 0.0 | 0.0 | 0.00 | 0.00 | 0.00 | 52 | 1016.6 |
| 20260502005133 | 49 | 203 | 0.0 | 0.0 | 0.00 | 0.00 | 0.00 | 42 | 1016.5 |
| 20260502004628 | 49 | 204 | 0.0 | 0.0 | 0.00 | 0.00 | 0.00 | 43 | 1016.5 |
| 20260502004126 | 50 | 206 | 0.0 | 0.0 | 0.00 | 0.00 | 0.00 | 42 | 1016.5 |
| 20260502003624 | 50 | 212 | 0.0 | 0.0 | 0.00 | 0.00 | 0.00 | 40 | 1016.5 |
| 20260502003120 | 50 | 212 | 0.0 | 0.0 | 0.00 | 0.00 | 0.00 | 38 | 1016.4 |
| 20260502002616 | 50 | 208 | 0.0 | 0.0 | 0.00 | 0.00 | 0.00 | 37 | 1016.5 |